Volver al catálogo

AIST-2T NO. 1

ActivoCienciaSSO
NORAD 67253·PAYLOAD·🇷🇺 Russia
Este nombre de satélite aún no ha sido confirmado por fuentes oficiales.

Lanzado Dec 28, 2025 desde Vostochny Cosmodrome

Loading…

Próximos Pases (próximas 24 horas)

TLE

ActualizadoSource: Space-Track

Época: Sep 14, 2026, 19:32 UTC

1 67253U 25313F   26257.81390553  .00031986  00000-0  38542-3 0  9995
2 67253  97.0746 335.2749 0005025 245.4191 114.6544 15.60725097 40606

Sigue AIST-2T NO. 1 en tiempo real con AllMySat

Download on the App Store